Tracking 19176 objects as of 25-May-2018
HD Live streaming from Space Station
objects crossing your sky now

TIROS 5

Track TIROS 5 now!
10-day predictions
TIROS 5 is classified as:


NORAD ID: 309
Int'l Code: 1962-025A
Perigee: 573.4 km
Apogee: 848.3 km
Inclination: 58.1 °
Period: 98.9 minutes
Semi major axis: 7081 km
RCS: 0.8142 m2 (medium)
Launch date: June 19, 1962
Source: United States (US)
Launch site: AIR FORCE EASTERN TEST RANGE (AFETR)
aabbcc
Your satellite tracking list
Your tracking list is empty




NASA's NSSDC Master Catalog

Two Line Element Set (TLE):
1 00309U 62025A   18144.49749193 -.00000146  00000-0  11213-4 0  9995
2 00309  58.0904 200.0970 0194039 180.0292 180.0758 14.56743982952314
Source of the keplerian elements: AFSPC